Find Starlink 34091

NORAD ID: 63808 Int'l Des: 2025-092 Owner: SPXS Country: US Constellation: starlink operational
LEOCIRCULAR

当前视图

正在加载3D地球...

About Starlink 34091

Starlink 34091 (NORAD 63808) is a starlink constellation satellite (v2 mini) launched May 4, 2025 by SPXS of US. It operates in LEO, CIRCULAR orbit with a mass of 575.00 kg.

即将过境

Passes for default location (London). Set your location on the main map for personalized predictions.

高度历史

Loading altitude history...

两行轨道根数

1 63808U 25092E 26264.06664078 .00016461 00000-0 60581-3 0 9991
2 63808 43.0031 149.2803 0002599 254.5802 105.4763 15.27609378 78544
Epoch: Sep 21, 2026 • Age: 52 hours

当前状态

高度 486.2 km
远地点 / 近地点 N/A
速度 7.63 km/s
星下点 37.20°N, 172.37°E
发射日期 May 4, 2025
运行时间 1.3 years
类型 internet

技术详情

分类 Payload
质量 575.00 kg
干质量 530.00 kg
长度 0.30 m
跨度 29.00 m
形状 ? Box + pan
制造商 SPXS
平台类型 Starlink V2MO
阶段状态 In Orbit
所有者/国家 SPXS/US

Most Searched